TimeIST,TemperatureF,Dew PointF,Humidity,Sea Level PressureIn,VisibilityMPH,Wind Direction,Wind SpeedMPH,Gust SpeedMPH,PrecipitationIn,Events,Conditions,WindDirDegrees,DateUTC
12:00 AM,78.8,60.8,54,29.86,1.1,Calm,Calm,-,N/A,,Haze,0,2012-10-06 18:30:00
12:30 AM,78.8,60.8,54,29.86,1.1,Calm,Calm,-,N/A,,Haze,0,2012-10-06 19:00:00
1:00 AM,78.8,60.8,54,29.86,1.1,Calm,Calm,-,N/A,,Haze,0,2012-10-06 19:30:00
1:30 AM,75.2,62.6,65,29.86,1.1,Calm,Calm,-,N/A,,Haze,0,2012-10-06 20:00:00
2:00 AM,75.2,62.6,65,29.86,1.1,Calm,Calm,-,N/A,,Haze,0,2012-10-06 20:30:00
2:30 AM,71.6,60.8,69,29.86,1.1,Calm,Calm,-,N/A,,Haze,0,2012-10-06 21:00:00
3:00 AM,71.6,60.8,69,29.86,1.1,Calm,Calm,-,N/A,,Haze,0,2012-10-06 21:30:00
3:30 AM,69.8,59.0,68,29.86,1.3,Calm,Calm,-,N/A,,Haze,0,2012-10-06 22:00:00
4:00 AM,71.6,59.0,64,29.86,1.3,WSW,2.3,-,N/A,,Haze,240,2012-10-06 22:30:00
4:30 AM,71.6,59.0,64,29.86,1.3,WSW,2.3,-,N/A,,Haze,240,2012-10-06 23:00:00
5:00 AM,71.6,59.0,64,29.86,1.3,WSW,3.5,-,N/A,,Haze,240,2012-10-06 23:30:00
5:30 AM,69.8,59.0,68,29.86,1.3,West,3.5,-,N/A,,Haze,260,2012-10-07 00:00:00
6:00 AM,69.8,59.0,68,29.86,1.3,West,3.5,-,N/A,,Haze,260,2012-10-07 00:30:00
6:30 AM,71.6,57.2,60,29.89,1.3,Calm,Calm,-,N/A,,Haze,0,2012-10-07 01:00:00
7:00 AM,69.8,59.0,68,29.89,1.3,Calm,Calm,-,N/A,,Haze,0,2012-10-07 01:30:00
7:30 AM,71.6,59.0,64,29.89,1.3,West,3.5,-,N/A,,Haze,260,2012-10-07 02:00:00
8:00 AM,73.4,59.0,61,29.89,1.3,West,3.5,-,N/A,,Haze,260,2012-10-07 02:30:00
8:30 AM,75.2,60.8,61,29.92,1.6,West,3.5,-,N/A,,Haze,260,2012-10-07 03:00:00
9:00 AM,77.0,60.8,57,29.92,1.6,West,3.5,-,N/A,,Haze,260,2012-10-07 03:30:00
9:30 AM,80.6,60.8,51,29.95,1.6,WSW,5.8,-,N/A,,Haze,250,2012-10-07 04:00:00
10:00 AM,82.4,60.8,48,29.95,1.6,West,4.6,-,N/A,,Haze,280,2012-10-07 04:30:00
10:30 AM,84.2,62.6,48,29.95,1.7,West,4.6,-,N/A,,Haze,280,2012-10-07 05:00:00
11:00 AM,86.0,62.6,45,29.95,1.7,WNW,4.6,-,N/A,,Haze,290,2012-10-07 05:30:00
12:00 PM,89.6,60.8,38,29.92,1.9,NW,5.8,-,N/A,,Haze,310,2012-10-07 06:30:00
12:30 PM,91.4,59.0,34,29.89,1.9,WNW,9.2,-,N/A,,Haze,300,2012-10-07 07:00:00
1:00 PM,93.2,59.0,32,29.89,1.9,NNW,10.4,-,N/A,,Haze,330,2012-10-07 07:30:00
1:30 PM,93.2,53.6,26,29.86,1.9,NNW,9.2,-,N/A,,Haze,330,2012-10-07 08:00:00
2:00 PM,93.2,53.6,26,29.86,1.9,NNW,10.4,-,N/A,,Haze,340,2012-10-07 08:30:00
2:30 PM,93.2,51.8,24,29.86,1.9,NW,10.4,-,N/A,,Haze,310,2012-10-07 09:00:00
3:00 PM,93.2,50.0,23,29.86,1.9,NNW,12.7,-,N/A,,Haze,330,2012-10-07 09:30:00
3:30 PM,93.2,50.0,23,29.86,2.5,NW,13.8,-,N/A,,Haze,320,2012-10-07 10:00:00
4:00 PM,93.2,50.0,23,29.86,2.5,NW,13.8,-,N/A,,Haze,310,2012-10-07 10:30:00
4:30 PM,93.2,50.0,23,29.86,2.5,NW,13.8,-,N/A,,Haze,320,2012-10-07 11:00:00
5:00 PM,91.4,50.0,24,29.86,2.5,NW,13.8,-,N/A,,Haze,320,2012-10-07 11:30:00
5:30 PM,89.6,51.8,27,29.83,2.5,NW,8.1,-,N/A,,Haze,320,2012-10-07 12:00:00
6:00 PM,89.6,51.8,27,29.86,2.5,NW,6.9,-,N/A,,Haze,320,2012-10-07 12:30:00
6:30 PM,87.8,53.6,31,29.86,2.2,NW,5.8,-,N/A,,Haze,320,2012-10-07 13:00:00
7:00 PM,86.0,55.4,35,29.86,-9999.0,NW,5.8,-,N/A,,Haze,320,2012-10-07 13:30:00
7:30 PM,86.0,55.4,35,29.86,-9999.0,NW,3.5,-,N/A,,Haze,310,2012-10-07 14:00:00
8:30 PM,82.4,59.0,45,29.89,1.9,NNW,5.8,-,N/A,,Haze,340,2012-10-07 15:00:00
9:00 PM,82.4,57.2,42,29.89,1.9,NNW,5.8,-,N/A,,Haze,330,2012-10-07 15:30:00
9:30 PM,82.4,57.2,42,29.89,1.6,NNW,4.6,-,N/A,,Haze,330,2012-10-07 16:00:00
10:00 PM,82.4,57.2,42,29.89,1.6,NNW,4.6,-,N/A,,Haze,340,2012-10-07 16:30:00
10:30 PM,80.6,57.2,45,29.89,1.6,NNW,3.5,-,N/A,,Haze,340,2012-10-07 17:00:00
11:00 PM,80.6,57.2,45,29.89,1.4,North,3.5,-,N/A,,Haze,350,2012-10-07 17:30:00
11:30 PM,78.8,57.2,47,29.89,1.4,Calm,Calm,-,N/A,,Haze,0,2012-10-07 18:00:00